This demonstration page uses our WeatherBlox Daily Observations layout. Learn more.

Left ArrowRight Arrow

38.83388, -104.82136

Hourly Observations for August 22, 2022

Temp ( °F °C ) Dew Point ( °F °C ) Humidity (%) Winds ( mph kmh ) Pressure ( in mb ) Visibility ( mi km ) Precip ( " mm )
12:58 am 00:58 Mostly Clear 61 16.1 51 10.6 70 70 SE 3 6 29.54 1000 10 16 0.00 0.00
1:56 am 01:56 Mostly Cloudy 59 14.9 52 10.9 77 77 Calm 29.49 999 10 16 0.00 0.00
2:56 am 02:56 Cloudy 58 14.4 53 11.4 82 82 NW 3 6 29.53 1000 10 16 0.00 0.00
3:56 am 03:56 Cloudy 59 14.8 51 10.8 77 77 Calm 29.52 1000 10 16 0.00 0.00
4:56 am 04:56 Cloudy 60 15.4 51 10.6 73 73 S 3 6 29.58 1002 10 16 0.00 0.00
5:56 am 05:56 Mostly Cloudy 59 15.1 51 10.3 73 73 S 9 15 29.60 1002 10 16 0.00 0.00
6:56 am 06:56 Cloudy 62 16.6 48 9 61 61 SSE 7 11 29.63 1004 10 16 0.00 0.00
7:56 am 07:56 Mostly Cloudy 61 16.3 53 11.4 73 73 Calm 29.71 1006 10 16 0.00 0.00
8:56 am 08:56 Mostly Cloudy 63 17.3 55 12.6 74 74 SE 6 9 29.77 1008 10 16 0.00 0.00
9:56 am 09:56 Sunny 65 18.4 55 13 71 71 SE 9 15 29.81 1010 10 16 0.00 0.00
10:56 am 10:56 Partly Cloudy 68 19.8 55 13 65 65 SE 10 17 29.83 1010 10 16 0.00 0.00
11:11 am 11:11 Mostly Cloudy 68 20 54 12 60 60 SE 12 19 29.83 1010 10 16 0.00 0.00
11:21 am 11:21 Cloudy 68 20 55 13 64 64 ESE 12 19 29.83 1010 10 16 0.00 0.00
11:56 am 11:56 Mostly Cloudy 68 20.2 54 12.2 60 60 SSE 13 20 29.80 1009 10 16 0.00 0.00
12:56 pm 12:56 Partly Cloudy 72 22.2 53 11.9 52 52 SE 9 15 29.93 1014 10 16 0.00 0.00
1:56 pm 13:56 Mostly Cloudy with Nearby Thunderstorms 69 20.6 50 9.8 50 50 SSE 7 11 29.80 1009 10 16 0.00 0.00
2:56 pm 14:56 Cloudy 69 20.5 49 9.4 49 49 SSE 7 11 29.75 1008 10 16 0.00 0.00
3:56 pm 15:56 Mostly Sunny 72 22.2 49 9.4 44 44 SE 9 15 29.90 1012 10 16 0.00 0.00
4:58 pm 16:58 Mostly Sunny 71 21.4 49 9.6 47 47 SSE 12 19 29.84 1011 10 16 0.00 0.00
5:58 pm 17:58 Mostly Cloudy 69 20.5 48 9.1 48 48 SSE 7 11 29.74 1007 10 16 0.00 0.00
6:58 pm 18:58 Mostly Cloudy 68 20.2 47 8.2 46 46 SSW 9 15 29.72 1006 10 16 0.00 0.00
7:58 pm 19:58 Mostly Cloudy 67 19.3 47 8.6 50 50 S 9 15 29.71 1006 10 16 0.00 0.00
8:58 pm 20:58 Clear 67 19.4 48 9 51 51 SSW 8 13 29.71 1006 10 16 0.00 0.00
9:58 pm 21:58 Clear 66 18.8 47 8.4 51 51 S 10 17 29.73 1007 10 16 0.00 0.00
10:58 pm 22:58 Clear 65 18.1 47 8.4 53 53 S 7 11 29.72 1006 10 16 0.00 0.00
11:58 pm 23:58 Clear 64 17.7 47 8.5 55 55 SSW 3 6 29.70 1006 10 16 0.00 0.00

Powered by AerisWeather